作者Okajima (set up man for RedSox)
看板RedSox
標題[轉播] 4/22 It's time to sweep aside Yankees!!!
時間Mon Apr 23 06:14:22 2007
Red Sox will sweep aside Yankees later and put them under .500%
http://sports.espn.go.com/mlb/preview?gameId=270422102
See how's the Espn preview.....64% for RedSox to win!
Chase Wright? Who?
http://yankees.scout.com/2/481530.html
Maybe he should go back to Trenton Thunder to eat his nipple!!!
and~~~
I want to take a break, PinkKonan.
I don't want to be another Proctor...
--
※ 發信站: 批踢踢實業坊(ptt.cc)
◆ From: 140.116.102.54
※ 編輯: Okajima 來自: 140.116.102.54 (04/23 06:17)
1F:推 Tavarez51: YeeeeeHaaaa~ Let's sweep them Yankees~ 04/23 06:31
2F:推 nickdarren:SWEEP NY GO SOX 04/23 07:12
3F:推 maxdi:打爆洋基吧 04/23 07:48
4F:推 dragon2000:Go~ Red Sox 04/23 07:58
5F:推 philidov:想問一下,sopcast在哪一台撥? channel-21嗎?? 04/23 07:58
6F:推 royalray:HAHAHA!WHITE DAY DREAM! 04/23 07:58
7F:推 Ortiz34:go go Redsox !!!!!!! 04/23 07:59
8F:推 dragon2000:someone is lost "Again" 04/23 08:00
9F:推 dadaHOPE:Coco不會上 04/23 08:04
10F:推 zetaikyosoku:22904 04/23 08:04
11F:→ zetaikyosoku:主播講日文...orz 04/23 08:05
12F:推 Ortiz34:我在22621看的耶 04/23 08:06
13F:→ zetaikyosoku:22904是英轉播,ESPN應該也有轉吧,找一下應該會到了 04/23 08:06
14F:推 HANNIBER:請問什麼是22904和22621阿?! 04/23 08:07
15F:推 Ortiz34:sopcast的頻道編號 04/23 08:09
16F:推 force2:sop://broker.sopcast.com:3912/22621 04/23 08:09
17F:推 ruffryders:Let's go Red Sox !!! 04/23 08:10
18F:推 Ortiz34:START !!! 04/23 08:11
19F:推 force2:95麥出現 04/23 08:12
20F:→ force2:1OUT 04/23 08:13
21F:推 Ortiz34:有快到, 95 miles 04/23 08:14
22F:推 paulrichman:會不會太刺激了點..一開始就是18vs18對決 04/23 08:14
23F:→ force2:積偷FLY OUT 04/23 08:14
24F:→ Ortiz34:對Abreu我怎麼看到96 miles... 04/23 08:14
25F:推 Pika123:有阿 有96.. 04/23 08:15
26F:→ force2:外角直球真準 04/23 08:15
27F:→ force2:真的96耶 04/23 08:16
28F:推 conanhide:96又一顆 04/23 08:16
29F:推 maxdi:8種球種... 04/23 08:16
30F:推 tsai18:這把槍好像滿快樂的 04/23 08:16
31F:推 jshuang:Abreu 保送那球幾麥? NHK 151 04/23 08:16
32F:推 paulrichman:囧...BB 04/23 08:16
33F:推 tkyoung:挖咧.Cy Tavarez教的 XD 04/23 08:16
34F:推 Ortiz34:那把三振留給A-Rod好了.... 04/23 08:17
35F:→ paulrichman:砸得好 04/23 08:17
36F:→ conanhide:96mile 04/23 08:17
37F:→ force2:要和A-ROD對決了 04/23 08:17
38F:→ Ortiz34:XDDD砸到人了XDD 04/23 08:17
39F:→ force2:哈哈哈 04/23 08:17
40F:→ conanhide:有脫帽 04/23 08:18
41F:推 Jimmy74:幹兩分 04/23 08:18
42F:→ tkyoung:這球剛出去的時候看起來不怎麼樣阿...立刻掉兩分 04/23 08:17
43F:推 jshuang:這球沒失投說. 04/23 08:18
44F:→ tkyoung:大壞球還是被巴出去.見鬼 04/23 08:18
45F:→ Jimmy74:GAP POWER= = 04/23 08:18
46F:推 Ortiz34:Orz 等等不幫他打回來就說不過去了 04/23 08:19
47F:→ Ortiz34:Manny追球非常不積極= === + 04/23 08:19
48F:推 force2:COCO應該接的到吧 04/23 08:19
49F:推 Tavarez51: hey, we were talking about american girls~ ^0^ 04/23 08:20
50F:推 paulrichman:manny 說等等送他兩隻solo HR 04/23 08:20
51F:→ force2:PANE不積極 04/23 08:20
52F:推 Jimmy74:COCO只剩下腿 04/23 08:20
53F:推 dragon2000:加油 不能在看了 希望回來是贏的 04/23 08:20
54F:→ Ortiz34:這時候就很想念Coco的那雙快腿.... 04/23 08:20
55F:→ Tavarez51: maybe he misunderstood A-Rod as a lady... 04/23 08:20
56F:推 ruffryders:強烈懷疑 剛剛那球是故意往A-Rod扔的 04/23 08:21
57F:推 club8:球感覺飛蠻久的 外野手追球不積極... 04/23 08:21
58F:推 Jimmy74:Manny有積極過嗎XD 04/23 08:22
59F:推 club8:BB了 幫維尼得點分吧..... 04/23 08:24
60F:推 hugoweng:家裡電視突然沒訊號 囧rz...有沒有那麼雖~~ 04/23 08:24
61F:推 force2:讓他爆!讓他爆! 04/23 08:25
62F:推 Ortiz34:Youk上壘,等等我就爆了他!!!! 04/23 08:25
63F:→ force2:靠你了!Papi 04/23 08:26
64F:推 club8:這投手節奏好慢....爆了他啦..... 04/23 08:26
65F:推 paulrichman:一整個俗小...一直牽制 04/23 08:27
66F:推 Supasizeit:怕盜壘咩 被盜啦 04/23 08:28
67F:→ paulrichman:great job...盜上二壘 04/23 08:28
68F:推 force2:Lugo道上2壘 04/23 08:28
69F:推 Ortiz34:Lugo GOOD JOB ! 04/23 08:28
70F:→ force2:芒刺在背了吼! 04/23 08:29
71F:→ Ortiz34:Youk纏垮他吧 04/23 08:29
72F:推 Belladonaa:Papi噴吧 04/23 08:29
73F:推 Polar:Youk BB 04/23 08:30
74F:推 paulrichman:BB....oh yeah...BIG PAPI show time!!! 04/23 08:30
75F:→ Ortiz34:漂亮,Youk BB 04/23 08:30
76F:→ Ortiz34:0 out, 1,2B 04/23 08:30
77F:推 tonyahsiang:tvants要看哪一台阿?? 04/23 08:30
78F:→ force2:SHOW TIME! 04/23 08:30
79F:推 club8:樓上來一發吧........ 04/23 08:31
80F:→ Ortiz34:等等跑一圈再回來,先去打擊囉XD 04/23 08:31
81F:→ paulrichman:再BB下去要看manny 滿貫了 04/23 08:31
82F:推 tkyoung:打高了.真可惜 04/23 08:32
83F:→ Ortiz34:還是要讓Manny來一支GS ?? 04/23 08:32
84F:→ force2:收集成滿壘可以換Manny滿貫砲喔 04/23 08:32
85F:→ force2:打差了 04/23 08:33
86F:推 Polar:F9 again = = 04/23 08:34
87F:推 paulrichman:松: 幫我得一分有這麼難嗎? (泣) 04/23 08:34
88F:→ mannypo:有點淺的飛球... 04/23 08:34
89F:推 Ortiz34:加油阿!!! 04/23 08:35
90F:→ mannypo:囧阿...JD加油 04/23 08:36
91F:推 Supasizeit:K 04/23 08:37
92F:推 club8:這樣居然沒得分....維尼..... 04/23 08:37
93F:推 RayAllen1030:囧 04/23 08:37
94F:推 Polar:K 囧 04/23 08:37
95F:推 kkman0331:無人出局一二壘一分未得 松?那麼顧人怨嗎 04/23 08:37
96F:推 nozomi21wt:潛水浮出 有沒有線上的可以看啊在學校沒sopcast Q口Q 04/23 08:37
97F:推 beckli:(嗶~消音)為什麼這麼多失投球沒炸開? 04/23 08:37
98F:推 Ortiz34:Damn...... 04/23 08:38
99F:→ ljuber:松版真的有負運 @@ 04/23 08:38
100F:→ kkman0331:松?被打一安就掉兩分 而且技安比的落點就那麼好 04/23 08:39
101F:→ kkman0331:昨天天使隊的colon被打的每球幾乎都紮實卻也只掉一分 04/23 08:39
102F:推 jshuang:那是守外野的人太 ...... XD 04/23 08:40
103F:推 hugoweng:這就是棒球啊 囧 04/23 08:41
104F:推 Supasizeit:照到一個大鬍子老外穿松阪球衣 04/23 08:41
105F:→ watertip:to noz.. 洋基版有個民視的連結 04/23 08:41
106F:推 Ortiz34:Wily這球不錯.... 04/23 08:42
107F:推 Belladonaa:賣肉 水 04/23 08:42
108F:推 force2:看他守外野真抖 04/23 08:42
109F:推 globetk3:看來用球數很少 可以多看維尼多投幾局 04/23 08:42
110F:推 nozomi21wt:謝謝w大~~~ 04/23 08:43
111F:推 paulrichman:這局防守上比較像話了...manny不要再搞笑,快醒醒! 04/23 08:43
112F:推 paulrichman:打得真悶 = = 04/23 08:48
113F:推 Ortiz34:come on.....i just want hits.... 04/23 08:48
114F:推 club8:大家不要對松阪這麼差啊....~"~ 快打爆對手..... 04/23 08:47
115F:推 paulrichman:喵的..難得Pena不盲砲 04/23 08:50
116F:推 Pika123:松坂對別隊投手有鼓舞作用 對自己打者有放鬆作用嗎@@ 04/23 08:50
117F:推 Ortiz34:Pena BB 04/23 08:51
118F:→ Ortiz34:2 outs , 1B 04/23 08:51
119F:推 Polar:Pedroia double! 04/23 08:51
120F:推 TimChiu:Pedroia!~! 04/23 08:51
121F:→ paulrichman:帥啦....小pedro敲出去了 04/23 08:51
122F:→ Ortiz34:2 outs, 2,3B Lugo Next !!!! 04/23 08:52
123F:→ paulrichman:主播剛唱衰完小pedro...馬上就敲一隻..讚 04/23 08:52
124F:推 TimChiu:........lugo 04/23 08:52
125F:推 tkyoung:沒有run support的Dice-K持續中... 04/23 08:52
126F:→ paulrichman:FxxK!!!! 04/23 08:53
127F:推 club8:喵的 又沒得分.....維尼(泣) 04/23 08:52
128F:→ Polar:lugo..... 04/23 08:53
129F:推 Tavarez51: More LOBs~ awesome..... 04/23 08:52
130F:→ Ortiz34:..... 04/23 08:53
131F:推 ruffryders:!!!!!!!!!!!!!!!!!!!!!!!!!!!!!!!!!!!!!!!!!!!!!!!!!!! 04/23 08:54
132F:推 christie972:待會要怎麼考試... 04/23 08:54
133F:推 mrkey:怎麼說呢....版標想改為 "左投貧打症" 04/23 08:56
134F:推 TimChiu:Matsuzaka is officially a member of red sox 04/23 08:56
135F:推 Polar:Jeter HBP...... 04/23 08:57
136F:推 TimChiu:砸arod砸jeter 04/23 08:57
137F:推 mrkey:據說今年那個變態男 冬天有去練一個叫vision contact的練習 04/23 08:56
138F:推 paulrichman:= =...again..hit the hitter 04/23 08:57
139F:推 mrkey:可以讓自己看球看的更清楚.... 04/23 08:57
140F:推 Polar:K了!! 04/23 08:59
141F:推 paulrichman:K 04/23 09:00
142F:推 HANNIBER:來個DP吧!!! DP GOD!!! 04/23 09:00
143F:推 myass:面對洋基的中心打線真的是考驗阿 04/23 09:00
144F:推 ltk99:K! 04/23 09:01
145F:推 Supasizeit:拜一下 04/23 09:01
146F:推 Polar:A-Rod K!!!!! 04/23 09:02
147F:推 paulrichman:KK 04/23 09:02
148F:推 HANNIBER:KK!!! 04/23 09:02
149F:推 TimChiu:Joe morgan真他媽的是個嘴泡男 04/23 09:02
150F:推 myass:還有一個 QQ 04/23 09:02
151F:推 Ortiz34:KKKKKKKKKK !!!!! Dice-K! 04/23 09:02
152F:推 TimChiu:一下說dice-k may not know how to pitch inside 04/23 09:02
153F:→ paulrichman:越投越威了 04/23 09:03
154F:推 TimChiu:K掉arod又說 dicek很強 就算前面hbp 還是go inside 04/23 09:03
155F:推 TimChiu:joe morgan臉皮厚到爆 04/23 09:03
156F:推 TimChiu:97M 04/23 09:04
157F:推 mrkey:Joe morgan和Jon Miller兩個基本上也是腦袋有問題的... 04/23 09:04
158F:推 jshuang:97 = 152 灌太兇了吧 04/23 09:04
159F:推 mrkey:97 = 156.2吧... 04/23 09:05
160F:推 beckli:(OOXJJIJI#!@#$!$U)這啥洨阿!!! 04/23 09:05
161F:推 paulrichman:我們的防守...= =..哀 04/23 09:05
162F:推 kkman0331:今天要毀在技安比嗎 04/23 09:06
163F:推 Pika123:松坂今年真的有衰運..@@ 04/23 09:07
164F:推 blueflier:發生啥事??.....只能看GamedayQQ 04/23 09:07
165F:推 tkyoung:高到頭頂的球都能三振 XD 賺到 04/23 09:07
166F:推 paulrichman:fxxking KKK!! 04/23 09:08
167F:推 TimChiu:有matsuzaka衰小的八卦嘛? 04/23 09:08
168F:推 beckli:第一局那支安打就算了,這啥洨鳥飛阿阿啊阿阿啊阿阿啊! 04/23 09:08
169F:推 myass:orz 這k早一個人來多好 04/23 09:08
170F:推 ckhou:那球搶太兇,Drew來接一定來得及 04/23 09:08
171F:推 deyugo:哀 松阪真的有負運 那球不是兩出局也不會得分吧=.= 04/23 09:09
172F:推 tkyoung:還早阿.才三局下.別緊張 04/23 09:10
173F:推 ruffryders:Bobby....... I HATE you !!!!! 04/23 09:12
174F:→ ruffryders:Melky...... I HATE you !!!!!!! 04/23 09:13
175F:推 mark30204:以紅襪的近況要逆轉很有機會 04/23 09:13
176F:推 suancheng:HR 04/23 09:14
177F:推 Belladonaa:HR! 04/23 09:14
178F:推 tkyoung:Gone! Manny's over everything! 04/23 09:13
179F:推 BloodyJoker:水啦!!!!HR!!! 04/23 09:14
180F:→ suancheng:晚了一打席 不過爽 04/23 09:14
181F:推 Polar:Manny!!!!!!!!!!!!!!!!!!!!!!!! 04/23 09:14
182F:推 kkman0331:洋基得到的三分劇情很像 兩出局一二壘 觸身球..見鬼了 04/23 09:14
183F:推 TimChiu:快點打爆Double-A Wright吧.. 04/23 09:14
184F:推 Ortiz34:HR !!!! Manny!!! 04/23 09:14
185F:→ ruffryders:MANNY !!!!!!!!!!!!!!!!!!!!!!!!!!!!!!!!!!!!!!!!!!!!! 04/23 09:15
186F:推 windphilip:Manny 今年兩支全壘打打出去後都用走的:P 04/23 09:14
187F:推 TimChiu:GONE 04/23 09:15
188F:推 hjh:Manny睡醒了嗎?XDDDD轟出去了 04/23 09:15
189F:推 TimChiu:BACK TO BACK!! 04/23 09:15
190F:推 Poleaxe:春訓真的結束了 04/23 09:15
191F:→ tkyoung:B2B!!!!! 04/23 09:15
192F:→ suancheng:B2B 04/23 09:15
193F:推 Belladonaa:B2B 04/23 09:15
194F:→ BloodyJoker:back2back啦 04/23 09:15
195F:推 amyer:b2b 04/23 09:15
196F:推 lodsongyy:manny!!!!!!!!!!!!!!!!!! 04/23 09:15
197F:→ windphilip:背靠背了!!! 04/23 09:15
198F:推 myass:Manny!! >///< u r the man!! 04/23 09:15
199F:→ tkyoung:就說還早別緊張吧 XDDDDDDD 04/23 09:15
200F:推 jshuang:剛壘上有人都沒有.... XD 04/23 09:15
201F:推 Polar:B2B!!!!!!!!! 04/23 09:16
202F:→ suancheng:來個B2B2B吧 !!!! 04/23 09:16
203F:→ Ortiz34:i forget how high the Green Monster is....? 04/23 09:15
204F:推 mid9blues:B2B!!! 04/23 09:16
205F:推 maikxz:靠 睡過頭剛起來看就給我看到這!!!!!! 04/23 09:15
206F:推 deyugo:XDDD 剛剛都不來依下 04/23 09:16
207F:→ ruffryders:JD !!!!!!!!!!!!!!!!!!!!!!!!!!!!!!!!!!!!!!!!!!!!!!!! 04/23 09:16
208F:→ Ortiz34:BTB HR!!!!!! 04/23 09:16
209F:推 TimChiu:back to back to back!!! 04/23 09:16
210F:→ Belladonaa:B2B2B 04/23 09:16
211F:推 Tavarez51: Finally, someone make that kid pay for mistakes 04/23 09:16
212F:→ BloodyJoker:b2b2b 04/23 09:16
213F:推 iammai:OMG!!!!!!!!!!!!!!!!!!!!!!!!!!!!!!!!!!!!!!!!!!!!!!!!!!!! 04/23 09:16
214F:→ Belladonaa:案 好爽 04/23 09:16
215F:→ suancheng:我就說B2B2B吧!!!!! 04/23 09:16
216F:→ Ortiz34:What a god damn hit !!!!!!!!! 04/23 09:17
217F:→ tkyoung:B2B2B XDDDDDDDDDDDDDDDDDd爽!!!! 04/23 09:17
218F:推 ltk99:連3轟 04/23 09:17
219F:推 robinkidd:!!!!!!!!!!!!!!!!!!!!! 04/23 09:17
220F:推 chabear:瘋了啦~這次三連戰啥不可能都出來了~ 04/23 09:17
221F:推 charlietu:靠!連三發~~爽阿! 不過三轟只得3分... 04/23 09:17
222F:→ mid9blues:B2B2B!!!!!!!!!! 04/23 09:17
223F:→ Polar:B2B2B!!!!!!!!!!!!!!!!!!!!!!!!!!!!!!!!! 04/23 09:17
224F:→ lodsongyy:Manny打出去姿勢超讚 XD 04/23 09:16
225F:→ deyugo:!!!!!!!!!!!!!!!!!!!!!! 04/23 09:17
226F:→ jshuang:看!! 不打都不打, 一打就三支.. 04/23 09:17
227F:→ maikxz:!!!!!!!!!!!!!!!!!!!!!!!!!!!!!!!!!!!!!!!!!!!!!! 04/23 09:17
228F:推 phoenixtwo:好扯..維尼燃燒吧 04/23 09:17
229F:推 amyer:好爽唷 04/23 09:17
230F:推 WilliamChu:爽阿 04/23 09:17
231F:→ lodsongyy:XDDDDDD 爽呆了 04/23 09:17
232F:→ suancheng:還不快放煙火!!!!!! 04/23 09:17
233F:推 Supasizeit:好樣的 04/23 09:17
234F:→ Ortiz34:BTBTB !!!!!!!!!!!! 04/23 09:17
235F:推 maxdi:靠....在餵球喔 04/23 09:17
236F:推 HANNIBER:為什麼~我去看書就拿三分!!!不管我要回來看了!!! 04/23 09:17
237F:→ tkyoung:Dice-K: T.T This is what I came for 04/23 09:17
238F:→ ruffryders:!!!!!!!!!!!!!!!!!!!!!!!!!!!!!!!!!!!!!!!!!!!!!!!!!!! 04/23 09:17
239F:推 ckhou:XDD B@B@B 04/23 09:17
240F:推 meteorapark:轟的好爽喔 XXXXXXXD 04/23 09:17
241F:→ ruffryders:CRAZY !!!!!!!!!!!!!!!!!!!!!!!!!!!!!!!!!!!!!!!!!!!!! 04/23 09:18
242F:→ jshuang:隊長: 我要為我的投手報仇! 04/23 09:18
243F:→ HANNIBER:不要趕我走~我想看求...@@" 04/23 09:18
244F:推 TimChiu:lol 04/23 09:18
245F:→ tkyoung:連四! 04/23 09:18
246F:→ maxdi:再一發我裸奔 04/23 09:18
247F:→ jshuang:看! 04/23 09:18
248F:推 TimChiu:4 in a roll!! 04/23 09:18
249F:→ Belladonaa:......................... 04/23 09:18
250F:→ Supasizeit:再來一隻!! 04/23 09:18
251F:推 nicetry:XDDDDDDDDD 04/23 09:18
252F:→ BloodyJoker:b2b2b2b 04/23 09:18
253F:→ amyer:連四了 04/23 09:18
254F:推 chenlh:maxdi:再一發我裸奔 04/23 09:18
255F:→ jshuang:maxdi 裸奔吧 04/23 09:18
256F:推 maxspeed150:B2B2B2B 04/23 09:18
257F:→ suancheng:幹 怎麼可能!!!!!!! 連四轟 04/23 09:18
258F:→ chabear:靠~打不完了啦~ 04/23 09:18
259F:推 iammai:太爽啦!!!!!!!!!!!!!!!!!!!!!!!!!!!!!!!!!!!!!!!!!!!!!!!!! 04/23 09:18
260F:→ ltk99:爽!!!!!!!!!!!!!!!!!!!!!!!!!! 04/23 09:18
261F:→ robinkidd:又來伊之!!!!!!!!!!!! 04/23 09:18
262F:推 dadaHOPE:OMFG!!!!!!!!!!!!!!!!!!!!!!!!!!!!!!!!!!!!!!!!!!!!!!!!! 04/23 09:18
263F:→ marlonlai:maxdi:再一發我裸奔 04/23 09:18
264F:→ amyer:有人要裸奔了 04/23 09:18
265F:→ ethanluo:四發囉.....隊長補一發啦!! 04/23 09:18
266F:→ tkyoung:maxdi I heard you! 04/23 09:18
267F:→ phoenixtwo:裸奔..我有看到 04/23 09:18
268F:推 club8:太扯了~~~~~~~~~~~~~~~~~~~~~~~~~~~~~~~~~~~~~~~ 04/23 09:18
269F:→ suancheng:maxdi:再一發我裸奔 04/23 09:18
270F:→ Polar:B2B2B2B !!!!!!!!!!!!!!!!!!!!!!!!!!!!!!!!!!!!!!!!!! 04/23 09:18
271F:推 enisx:哇~~~~連四發hr 04/23 09:18
272F:推 dicky1:B TO B TO B TO B !!!!!!!!!!!!!!!!1 04/23 09:18
273F:推 rosemars:天啊.....居然有這種事....!!!!! 04/23 09:18
274F:推 mid9blues:B2B2B2B!!!! 04/23 09:18
275F:→ meteorapark:全壘打大放送~~~~~~~~好爽喔~~~ 04/23 09:18
276F:推 Toxicity:天啊~ 我忍不住狂笑~ 太爽了! 04/23 09:18
277F:→ maxspeed150:爽~~~~ 04/23 09:18
278F:推 maikxz:............................!!!!!!!!!!!!!!!!!!!!!!!!!!! 04/23 09:18
279F:→ Ortiz34:going crazy !!!! 04/23 09:18
280F:推 hjh:幹爽到靠唄,沒睡覺看比賽果然是對的XD 04/23 09:18
281F:→ ckhou:隊長也轟...XDDDDDDDDDDDDDDDDD 04/23 09:18
282F:推 sylviehsiang:MAXDI:再一發我裸奔 04/23 09:18
283F:→ Belladonaa:WMP一定會輝大棒... 04/23 09:18
284F:推 alexndy:爽翻了 04/23 09:19
285F:推 deyugo:爽!!!!!!!!!!!!! 回去2a重建信心吧 XDDD 04/23 09:18
286F:推 bigpet:瘋了瘋了!!!!! 連四發 04/23 09:19
287F:推 pop100:太神啦~第一次看到連四轟 04/23 09:19
288F:→ HANNIBER:有人要裸奔了!!!!!!!!!! 04/23 09:19
289F:推 nozomi21wt:害我在學校圖書室亂叫 XD 酷斃了 04/23 09:18
290F:推 paulrichman:媽的我錯過了甚麼..拉砲屎回來就得四分 04/23 09:19
291F:→ ruffryders:WHAT!!!!!!!!!!!!!!!!!!!!!!!!!!!!!!!!!!!!!!!!!!!!!!! 04/23 09:19
292F:推 johnny30315:這輩子第一次!!!!!!!!!!!!!!!!!!!!!!!!!!!!!!!!!!!!!! 04/23 09:19
293F:推 Junken:GO CRAZY!!!!!!! 04/23 09:19
294F:推 AmberBrkich:背靠背靠背再靠背!!!!!!!!!!!!!!!! 04/23 09:19
295F:推 TimChiu:maxdi你不要給我嘴泡 04/23 09:19
296F:→ HANNIBER:第一次看到這麼酷的拉!!! 04/23 09:19
297F:推 myass:瘋了 XD b2b2b2b!!!!!!!!!!!!! 04/23 09:19
298F:→ ltk99:教練....我想看連五轟 04/23 09:19
299F:推 NOMO:靠 這三洨啦? 04/23 09:19
300F:推 Poleaxe:裸奔 裸奔 XDD 04/23 09:20
301F:推 lodsongyy:!!!!!!!!!!!!!!!!!!!!瘋了!!!!!!!!!!!!!!!! 04/23 09:20
302F:推 Jethro1215:太爽了~~~~~ WOOOOO~~~ 04/23 09:20
303F:推 jianpi:我這輩子第一次看到連四支 04/23 09:20
304F:推 JLester:maxdi:再一發我裸奔 04/23 09:20
305F:→ HANNIBER:五發~我晚上不去考試拉!!!! 04/23 09:20
306F:→ leione:我快瘋了 一進辦公室就連四轟!!!!! 04/23 09:19
307F:推 specialcook:靠邀= ="我才出門一下...沒看到 囧 04/23 09:20
308F:推 Belladonaa:被K 04/23 09:20
309F:推 tkyoung:下莊 04/23 09:20
310F:→ HANNIBER:拿大五換第五隻 04/23 09:20
311F:推 suancheng:Spicialcook你還是出門吧 XD 04/23 09:20
312F:推 Supasizeit:紅襪史上第一次 連四拉四 04/23 09:20
313F:推 christie972:幹 爽翻了!!! 04/23 09:20
314F:推 maikxz:按 看他這種選球= = 04/23 09:21
315F:→ leione:晚上何時重播啊 04/23 09:20
316F:推 PaytonBank:!!!!!!!!!!!!!!!!!!!!!!!!!!!!!!!!!!! 04/23 09:21
317F:推 MER:靠 我在上班不能看啦~~~ 吼~~~~~~ 04/23 09:21
318F:推 Carmelo3:SONG!!!!!!!!!!!!!!!!!!11 04/23 09:21
319F:推 KoAnne:shit~~~我沒看到 04/23 09:21
320F:推 danceking:松版:這是在打電動嗎??科科~~ 04/23 09:21
321F:推 Crazyloveyou:幹 我哭了〒△〒 04/23 09:21
322F:推 Mace2004:九台!洋基快付錢! 04/23 09:21
323F:推 paulrichman:Oh My GOD!!! 04/23 09:21
324F:推 mid9blues:maxdi:再一發我裸奔 04/23 09:22
325F:推 AmberBrkich:見證歷史,爽~~~~~~~~~~~~~~~~~~~ 04/23 09:21
326F:推 TimChiu:I JUST WITNESSED HISTORY 04/23 09:21
327F:推 WilliamChu:哪個要裸奔的自己舉手 04/23 09:22
328F:推 Opeth:這局實在太high了...在實驗室看到爽翻了...XDDD 04/23 09:21
329F:推 Tavarez51: MAXIMUS! MAXIMUS! MAXIMUS! MAXIMUS! MAXIMUS! 04/23 09:21
330F:推 RayAllen1030:爽到深處無怨尤阿~XDDDD 04/23 09:22
331F:→ paulrichman:剛看到重播...瘋了瘋了 04/23 09:22
332F:推 meteorapark:看到熱血沸騰阿~~~好熱血阿 XXXD 04/23 09:22
333F:推 suancheng:爽到番 !!!!!! 04/23 09:22
334F:推 WayneH:爽啦 04/23 09:22
335F:推 A8804064:買完早餐回來剛好轉到Manny...XDDDD 04/23 09:22
336F:→ Cawaiine:太爽了拉 04/23 09:23
337F:推 singsongcc:Back to Back to Back to Back~~~爽拉XD 04/23 09:22
338F:推 randy0125:這是 全壘打大賽嗎?~ 哈哈哈~~~ 04/23 09:22
339F:推 barkli:看...去大便沒看到 04/23 09:22
340F:推 caesers:只有在MVP玩的出來的情況發生了 爽 04/23 09:22
341F:推 smalldick:OH~MY~GOD~ 04/23 09:22
342F:推 ruffryders:那個要裸奔的~ 別想賴阿!!!!!!!!!!!!!! 04/23 09:23
343F:推 chuchun15:靠邀!!!我爽到全身雞皮疙瘩都起來了 04/23 09:22
344F:推 uponupon:Back to back to back to back!!!!! 04/23 09:23
345F:推 hugoweng:1有沒有那麼爽啊~ 04/23 09:23
346F:→ mannypo:天胡十三么阿...送啦 04/23 09:23
347F:推 ckhou:我參與了歷史啊!!! 太棒了~~~~(媽我在這裡!!!) 04/23 09:23
348F:→ meteorapark:哪個要裸奔的自己舉手 XXXD 04/23 09:23
349F:→ uponupon:這比我打MVP還high阿~~~ 04/23 09:23
350F:推 dadaHOPE:日本鄉民看到了沒 就是只想打全壘打啦 送XD 04/23 09:23
351F:推 tonometer:maxdi:再一發我裸奔 04/23 09:23
352F:推 PaytonBank:XDDDDDDDDDDDDDDD 04/23 09:24
353F:推 zingaro:爽翻啦!!!!!!!!!!!!!!!!!!!!!!!!!!! 04/23 09:23
354F:推 mark30204:天ㄚ 紅襪這是太猛了 04/23 09:24
355F:→ ruffryders:裸奔 裸奔 裸奔 裸奔 裸奔 裸奔 裸奔 裸奔 裸奔 裸奔 04/23 09:24
356F:→ zingaro:maxdi:再一發我裸奔 04/23 09:24
357F:推 toptoptop44:太豪笅了吧~連4發HR!!! 04/23 09:23
358F:推 howdou:幹 出去買早餐沒看到@@ 04/23 09:24
359F:推 asdfgzxcvb:爽阿!!!受不了啦!!! 04/23 09:24
360F:推 francviking:shit pps一直累格 04/23 09:24
361F:→ ruffryders: maxdi:再一發我裸奔 04/23 09:24
362F:→ zingaro:史上最扯!!!!!!!!!!!!!!!!!!!!!!!!!!!!!!!!!!!!!!!!!!!!!! 04/23 09:24
363F:推 KoAnne:隔壁hey0415的問題讓我笑了 ...XD 04/23 09:24
364F:推 WilliamChu:r奔 裸奔 裸奔 裸奔 裸奔 裸奔 裸奔 裸奔 裸奔 裸奔 04/23 09:24
365F:→ uponupon:可惡...9點50期中考...= = 好想繼續看阿 04/23 09:24
366F:推 Polar:回應日本鄉民的話嗎? XDDDDDDDDD 04/23 09:24
367F:→ hugoweng:Theo看呆了XD 04/23 09:24
368F:推 meteorapark:樓上UP大 別去考拉~~不然又錯過歷史了XDDDD 04/23 09:25
369F:推 Mace2004:大輔哥今天被長打...... 04/23 09:25
370F:推 EndlessJazz:太瘋狂啦~~ 04/23 09:26
371F:推 TimChiu:maxdi:再一發我裸奔 04/23 09:26
372F:推 ruffryders: maxdi:再一發我裸奔 04/23 09:27
373F:推 maikxz:比扯鈴還扯= = 04/23 09:27
374F:→ ruffryders: maxdi:再一發我裸奔 04/23 09:27
375F:推 lodsongyy:這連4轟 要好好保存XD 04/23 09:26
376F:推 maxdi:靠腰....這個ID不能用了 04/23 09:27
377F:→ ruffryders:我們的防守組很差阿~ 04/23 09:27
378F:推 zingaro: maxdi:再一發我裸奔 04/23 09:27
379F:推 yankeehater: maxdi:再一發我裸奔 04/23 09:27
380F:推 suancheng:maxdi:再一發我裸奔 04/23 09:28
381F:推 paulrichman:媽的..松自己要穩住啊.. 04/23 09:27
382F:→ ruffryders: maxdi:再一發我裸奔 04/23 09:28
383F:推 nicetry: maxdi:再一發我裸奔 04/23 09:28
384F:推 dalireal:maxdi:再一發我裸奔 04/23 09:28
385F:推 KoAnne: maxdi:再一發我裸奔 04/23 09:28
386F:推 ruffryders: maxdi:再一發我裸奔 04/23 09:29
387F:推 WilliamChu: maxdi:再一發我裸奔 04/23 09:30
388F:推 tkyoung:我也來 maxdi:再一發我裸奔 XD 04/23 09:29
389F:推 KoAnne:爽~~~~~~~~~超點失分 04/23 09:30
390F:推 suancheng:NP!!!! 04/23 09:30
391F:→ krajicek:現在剩Papi還沒打了 04/23 09:30
392F:推 maxdi:我研究看看哪條路晚上都沒人..... 04/23 09:30
393F:→ ruffryders: maxdi:再一發我裸奔 04/23 09:30
394F:推 TimChiu:!!!!!!!!!!!!!!!!!!!!!!!!帕姬魂!!!!!!!!!!!!!!!!!!!!!!!! 04/23 09:30
395F:推 paulrichman:幹的好...小pedro 04/23 09:30
396F:推 maikxz:maxdi:靠腰....這個ID不能用了 maxdi想裝傻 鄉民有看見 04/23 09:30
397F:→ suancheng:裸奔還OK啦~ 隔壁有人要吞電視 04/23 09:31
398F:推 oalab:鄉民要見證maxdi裸奔 04/23 09:31
399F:推 myass: maxdi:再一發我裸奔 go! sox!! 04/23 09:31
400F:推 KoAnne:哈哈 實在太爽了~~~沒失分 04/23 09:32
401F:推 Polar:Youk 水! 松沒失分 04/23 09:32
402F:→ paulrichman:守住了.....OH YA!! 04/23 09:32
403F:→ sycc: maxdi:再一發我裸奔 04/23 09:32
404F:推 deyugo:好險阿 ~"~ 04/23 09:32
405F:→ paulrichman:我也來... maxdi:再一發我裸奔 04/23 09:32
406F:推 zingaro:爽 pedro NP!! 04/23 09:32
407F:推 ckhou: 奔裸我發一再:idxam 04/23 09:32
408F:推 Belladonaa: maxdi:再一發我裸奔 04/23 09:33
409F:推 ruffryders:太好了 守住了!!! maxdi:再一發我裸奔 !!! 04/23 09:33
410F:→ zingaro: maxdi:我研究看看哪條路晚上都沒人..... XDDD 04/23 09:34
411F:推 ltk99: maxdi:再一發我裸奔 04/23 09:34
412F:推 jandin: maxdi:再一發我裸奔 04/23 09:34
413F:→ ruffryders: maxdi:我研究看看哪條路晚上都沒人..... 04/23 09:34
414F:推 suancheng:4 HR in a roll or road? 剛剛主撥是講哪一個落 04/23 09:34
415F:推 WilliamChu:maxdi 我讓你戴紅襪的帽子裸奔啦 04/23 09:35
416F:推 hjh: maxdi:再一發我裸奔 04/23 09:35
417F:推 KoAnne:我以為又要出去了 XD 小perdo 04/23 09:35
418F:推 NOMO: maxdi:再一發我裸奔 04/23 09:36
419F:推 philidov:換投....有點側投的Colter Bean 04/23 09:36
420F:→ ruffryders:感覺 連四轟的快感 來的快去的也快 04/23 09:36
421F:推 maikxz:按...MLBTV突然沒聲音 04/23 09:36
422F:推 blueflier:maxdi 我的毛帽可以借你...XD 04/23 09:36
423F:→ ruffryders:Melky ........ I HATE you ......!!!!!!!!!!! 04/23 09:36
424F:推 Polar:我的MLB.TV也是 嚇了一跳@@" 04/23 09:36
425F:推 JLester:沒聲音... 04/23 09:37
426F:→ JLester:有了~ 04/23 09:37
427F:推 meteorapark:maxdi 裸奔要有圖有真像阿~~~XD 不然對鄉民難交代... 04/23 09:37
428F:推 KoAnne:對方捕手好像有問題~~~ 04/23 09:37
429F:→ maikxz:Lugo別偷點 也來一一隻吧 04/23 09:37
430F:推 dadaHOPE:恭喜洋基牛棚又要多投六局 可說是獨步全聯盟 04/23 09:37
431F:推 krajicek:這局會輪到Papi了,要補一發嗎? 04/23 09:39
432F:推 paulrichman:lugo..選球男 04/23 09:40
433F:推 Ortiz34:Lugo walk.... 04/23 09:40
434F:推 maikxz:Youk竟然沒死... 04/23 09:40
435F:→ paulrichman:NOT IN TIME!! 04/23 09:40
436F:推 zingaro:Papi來一發吧!!! 04/23 09:40
437F:→ maikxz:腳成也變快了嗎XD 04/23 09:41
438F:推 chenlh:實在是不敢說老爹來一發就怎麼怎麼... 04/23 09:41
439F:推 WilliamChu:老爹GOGOGO 04/23 09:41
440F:推 maxdi:[公告] 本版禁止任何形式之違反善良風俗推文 04/23 09:41
441F:推 Ortiz34:XDDD 04/23 09:42
442F:推 meteorapark:差一點阿~~~~~ 04/23 09:42
443F:推 tkyoung:差一點 Papi RBI double! 04/23 09:41
444F:推 Polar:Papi ground rule double! 04/23 09:43
445F:→ WilliamChu:maxdi有給你戴帽子還不滿意喔 04/23 09:42
446F:推 paulrichman:shit...差一點 04/23 09:43
447F:→ maxdi:再出去我含著香蕉跑 04/23 09:43
448F:推 specialcook:PAPI差一點@@" 04/23 09:43
449F:推 bigpet:Manny GOGOGOGOGOGOGO!!!! 04/23 09:43
450F:推 maikxz:可惡...ground rule double 04/23 09:43
451F:→ Ortiz34:I'm sorry..... 04/23 09:43
452F:推 chenlh:Manny Manny Manny Manny Manny Manny Manny 04/23 09:43
453F:→ specialcook:maxdi大你確定嗎?XD 下一棒是MANNY耶 04/23 09:43
454F:→ WilliamChu:MANNY GOGOGO 04/23 09:44
455F:推 suancheng:想要去上廁所 可是怕錯過XD 04/23 09:44
456F:→ Ortiz34:go go Manny !!! 04/23 09:44
457F:推 hjh:幹~以為Papi也要來一發>< 04/23 09:44
458F:推 Opeth:有點可惜... 04/23 09:46
459F:推 paulrichman:好正的廣告妹 04/23 09:47
460F:推 Tavarez51:More LOBs, but guess' we shoudn't ask that much 04/23 09:46
461F:推 Ortiz34:Drew involves in the BOS and LAD BTBTBTB...... 04/23 09:47
462F:→ paulrichman:Happy B-day...粉柯南? 04/23 09:48
463F:推 Polar:Baseball有人po四連發的記錄 Drew參加了兩次XD 04/23 09:48
464F:推 tkyoung:挖咧.剛剛好過 04/23 09:49
465F:→ Polar:Jeter homer= = 04/23 09:50
466F:推 maxdi:hr~~不過不關我的事 04/23 09:50
467F:推 maxspeed150:...... 04/23 09:50
468F:推 paulrichman:= = 04/23 09:50
469F:推 Tavarez51: wow, whatever they hit become something......... 04/23 09:50
470F:→ paulrichman:日本鄉民不能怪襪子們了... 04/23 09:50
471F:→ tkyoung:K, nice come back 04/23 09:51
472F:推 club8:剛剛是不是有一球97mile.... 04/23 09:51
473F:推 Mace2004:心理素質沒話講,被打HR後,依舊送K 04/23 09:51
474F:→ krajicek:搞不好投得差卻勝投,投得好卻敗投 04/23 09:52
475F:→ Mace2004:再K掉A-Rod吧 04/23 09:52
476F:→ tkyoung:K!!!! 04/23 09:53
477F:推 ltk99:K 04/23 09:53
478F:推 maxdi:K 04/23 09:53
479F:推 Polar:A-Rod K!!!!! 04/23 09:53
480F:→ tkyoung:spliter - slider - curve = K 04/23 09:53
481F:推 paulrichman:A-Rod終於恢復正常水準了 XD 04/23 09:53
482F:推 meteorapark:好變態的卡特阿~~ 04/23 09:53
483F:推 darkstar0412:hr .....@@ 04/23 09:54
484F:推 nca49:97mile?! 04/23 09:55
485F:推 waterice12:要開始KKKKKKKKKKKKK 04/23 09:55
486F:推 specialcook:AROD回來了XD 04/23 09:55
487F:推 paulrichman:he GOT it!!! 04/23 09:56
488F:→ paulrichman:A-rod good JOB...you're BACK..man!! 04/23 09:56
489F:推 club8:今天變身成k-rod了 變得好! 04/23 09:56
490F:→ paulrichman:K-rod is A-rod XDDD 04/23 09:56
491F:→ club8:襪子們下一局多打些分數讓維尼拿勝投吧! 04/23 09:56
492F:推 ruffryders:A-rod became K-rod XDDD 04/23 09:57
493F:→ maikxz:控球不穩 趁機擊倒吧XD 04/23 09:59
494F:推 mark30204:紅襪的打線在爆發吧 04/23 09:59
495F:推 paulrichman:drew walk! 04/23 10:00
496F:推 mannypo:A羅不能太放心吧...之前也是先領K才轟再見滿貫砲 04/23 10:01
497F:推 paulrichman:隊長再來一發 04/23 10:02
498F:推 PaytonBank:!!!!!!! 04/23 10:02
499F:→ mannypo:打完之後才發現...希望不要烏鴉嘴= = 04/23 10:02
500F:推 maikxz:JD Drew你這玻璃人別亂跑..... 04/23 10:03
501F:推 Polar:Drew SB 04/23 10:03
502F:→ paulrichman:NOT IN TIME!! 04/23 10:03
503F:推 waterice12:SBSB 04/23 10:04
504F:→ Polar:Tek BB 04/23 10:04
505F:推 specialcook:結果隊長BB Drew還是小心別傷身的好= =" 04/23 10:04
506F:→ paulrichman:tek walk! 04/23 10:04
507F:→ maikxz:現在隔壁也搞興農那套嗎= = Pettitte怎在牛棚練投.... 04/23 10:04
508F:→ waterice12:洋基牛棚要開始燃燒了嗎XD 04/23 10:05
509F:推 juiceana:盲 有夠盲 04/23 10:05
510F:推 tkyoung:in-between session吧 04/23 10:05
511F:推 RayAllen1030:pena K.. 04/23 10:05
512F:推 kengriffey:已上推文我只看到有人說要裸奔 快裸奔吧 04/23 10:05
513F:→ maikxz:幹 真夠盲.... 04/23 10:05
514F:推 Polar:真盲= = 04/23 10:06
515F:推 hugoweng:Wily真的很盲.. 04/23 10:06
516F:推 ckhou:盲炮終究是盲炮 04/23 10:06
517F:推 paulrichman:damn BLIND -.- 04/23 10:06
518F:→ mannypo:袁公剛剛有說ANDY為啥在牛棚...今天是他牛棚日 04/23 10:06
519F:推 specialcook:殘壘 囧 04/23 10:07
520F:→ mannypo:他可能'自動'要求上去 04/23 10:06
521F:推 charlietu:唉!今天的殘壘真是有夠多~~四轟都是陽春 04/23 10:07
522F:→ hugoweng:...這麼不穩的投手...竟然沒打爆他 04/23 10:07
523F:推 Pika123:不打HR好像拿不到分....~.~ 04/23 10:07
524F:推 MrDouble:Pena....... 04/23 10:07
525F:推 Tavarez51:.....so...we can only score when no one on? 04/23 10:07
526F:推 juiceana:目前為止得點圈打擊率 0/7 04/23 10:08
527F:推 RayAllen1030:維尼撐住阿~ 04/23 10:10
528F:推 zingaro:真的很難拿分@@ 04/23 10:10
529F:推 guapoantonio:松板現在幾K啦?? 04/23 10:10
530F:推 paulrichman:好像5K 04/23 10:11
531F:推 tkyoung:又是個鳥安 Orz... 04/23 10:12
532F:推 hugoweng:拜託鎖住啊\!!! 04/23 10:12
533F:推 jshuang:這接到 DP 耶 04/23 10:12
534F:→ tkyoung:DP.可惜又落後了 04/23 10:13
535F:推 maikxz:JD Drew 不要勉強他這個玻璃人.... 04/23 10:14
536F:推 hugoweng:打回來啊! 04/23 10:14
537F:推 RayAllen1030:Drew打全壘打就好XD 04/23 10:14
538F:推 Pika123:打到外野都蠻衰小的 真慘>.< 04/23 10:14
539F:推 paulrichman:Andy 要上來? 04/23 10:15
540F:推 amyer:Pettitte 要上了,今年第二次這樣用 04/23 10:15
541F:推 ltk99:我論今晚媒體焦點在松坂失五分而不是紅襪連四轟的可能性... 04/23 10:15
542F:推 ckhou:先發投手這樣操? 04/23 10:17
543F:推 TimChiu:Andy Pettite 04/23 10:17
544F:推 tkyoung:Pettitte還真的上了? 04/23 10:17
545F:推 specialcook:Pettitte真的上來了... 04/23 10:17
546F:推 beckli:所以...把派提特當剛雷嗎~ 04/23 10:17
547F:→ tkyoung:這樣操.如果傷了的話Torre就爽了 04/23 10:18
548F:→ maikxz:投手教練是老劉嗎= = 04/23 10:19
549F:推 waterice12:在來個幾發吧 04/23 10:19
550F:推 paulrichman:Youk walk! 04/23 10:21
551F:推 WilliamChu:老爹把他打下去吧 04/23 10:21
552F:推 TimChiu:sign 04/23 10:21
553F:推 specialcook:PAPI DP..囧 04/23 10:21
554F:推 hugoweng:打線好無力 Orz... 04/23 10:21
555F:推 TimChiu:sigh... 04/23 10:21
556F:推 sycc:DP 04/23 10:21
557F:推 maikxz:.................................. 04/23 10:21
558F:推 nozomi21wt:Pettitte真的上來燃燒小宇宙...趁機快轟吧 XD 04/23 10:21
559F:推 tkyoung:挖咧.讓他in-between session的配額解決一局? 04/23 10:21
560F:→ paulrichman:= =...DP 04/23 10:22
561F:推 beckli:靠...不滿中 04/23 10:22
562F:推 freeru:才打五局 LOB 就來到 9 了........有沒有那麼機車啊... 04/23 10:21
563F:推 A8804064:維尼今天頗差...他的差能概過連四轟 04/23 10:25
564F:推 paulrichman:K 04/23 10:26
565F:推 danceking:不要情聖...偶要肛島XD\囧/ 04/23 10:27
566F:推 jshuang:對 Abreu 一直丟變速. XD 04/23 10:28
567F:推 Crazyloveyou:今天老爹怎麼穿四十二號啊 什麼意思啊 04/23 10:28
568F:推 maikxz:真愛用Romero= = 04/23 10:29
569F:推 TimChiu:Jackie Robinson's number 04/23 10:29
570F:推 JeAnnWu:K 04/23 10:30
571F:推 ltk99:K 04/23 10:30
572F:推 hugoweng:K 04/23 10:30
573F:推 specialcook:K 04/23 10:30
574F:推 RayAllen1030:阿布 3K 04/23 10:30
575F:推 krajicek:這局應該是松阪最後一局了吧 04/23 10:30
576F:→ JeAnnWu:應該結束了 7IP 7H 7SO 1BB 5R 04/23 10:30
577F:推 paulrichman:7K 04/23 10:30
578F:→ adamp3:給維尼勝投吧!!! 這局至少要打兩分!!! 04/23 10:30
579F:推 amyer:松坂今天表現的還可以啦,兩隻鳥安都讓他失分也沒辦法,繼續 04/23 10:30
580F:推 maikxz:Manny-Drew-Lowell-Varitek 再來一次應該很屌... 04/23 10:30
581F:→ amyer:加油 04/23 10:31
582F:→ hugoweng:Lucky 7!!!!!打線大爆發啊 04/23 10:31
583F:推 JackyPayton:KKK 04/23 10:32
584F:→ Pika123:可以再投一局嗎 ?.? 04/23 10:33
585F:推 JeAnnWu:日本鄉民又會說只顧打全壘打嗎?XD 04/23 10:34
586F:推 amyer:不可能的,103球了 04/23 10:34
587F:推 zingaro:加油!! 04/23 10:35
588F:→ JeAnnWu:不過最近三次松阪的先發 紅襪的五分是五支陽春彈XD 04/23 10:34
589F:推 specialcook:今天被說只顧打全壘打的話 還真的無話可說...XD 04/23 10:35
590F:推 hugoweng:今天第一支SINGLE... 04/23 10:36
591F:→ JeAnnWu:終於不是全壘打了XD 04/23 10:36
592F:→ specialcook:才說完MANNY就安打囉~ 04/23 10:36
593F:推 cvn65:大四喜 十八羅漢 四十番 04/23 10:35
594F:推 maikxz:胖子 只會打全壘打XD 04/23 10:36
595F:推 JeAnnWu:YES! 04/23 10:37
596F:推 freeru: XDDDDDDDDDD 04/23 10:37
597F:→ JeAnnWu:Drew真是棒 04/23 10:37
598F:→ maikxz:DREW!!!!!!!!!!!!!!!!!! 04/23 10:38
599F:推 jshuang:至少要敗逃吧. 04/23 10:38
600F:推 WilliamChu:水啦 隊長加油 04/23 10:38
601F:推 Pika123:加油 加油 衝喔~~ 04/23 10:38
602F:推 RayAllen1030:Drew真是棒耶 04/23 10:38
603F:推 paulrichman:drew!!! 04/23 10:38
604F:推 Ortiz34:Drew Double !!!!! 04/23 10:38
605F:推 MER:Mr. Double要發功啦 賞支bouble吧 04/23 10:38
606F:→ Ortiz34:let Dice-K win the game !!!!!! 04/23 10:38
607F:推 ckhou:傑迪豬真的超好用的 04/23 10:39
608F:推 MrDouble:Drew好威阿 04/23 10:38
609F:推 waterice12:燒吧牛棚 04/23 10:39
610F:→ maikxz:過去Drew平均一年打約118場...現在打了16場 還有102場= = 04/23 10:38
611F:推 JeAnnWu:HR 04/23 10:39
612F:推 jshuang:HR! 04/23 10:39
613F:→ WilliamChu:都沒發現老派下去了耶 04/23 10:39
614F:推 hugoweng:HR!!!!!!!!1 04/23 10:39
615F:推 iammai:HR!!!!!!!!!! 04/23 10:39
616F:推 juiceana:Gone!!!!!!!!!!!!!!!!!!! 04/23 10:39
617F:推 BIGBRA:哈哈.賣肉有夠強 04/23 10:39
618F:→ JeAnnWu:爽啦 04/23 10:39
619F:推 Toxicity:HomeRun 04/23 10:39
620F:推 nicetry:哈~~ 04/23 10:39
621F:→ MrDouble:送!!! 04/23 10:39
622F:推 TimChiu:HOMERUN AGAINNNNNNNNN!!!! 04/23 10:39
623F:推 bkm0925:爽!!HR 04/23 10:39
624F:推 specialcook:Mr.DOUBLE becomes Mr.HomeRun!!!!!!!!!!!! 04/23 10:39
625F:推 dadaHOPE:Lowell! 04/23 10:39
626F:推 COWBOY2:XDDDDDDDDDDDDDDDDDDDDDDDDDDDDDDDDDDDD 04/23 10:40
627F:→ maikxz:!!!!!!!!!!!!!!!!!!!!!!!!!!!!!!!!!1爽啊 04/23 10:40
628F:推 tkyoung:煙火秀! 04/23 10:40
629F:推 JackyPayton:!!!!!!!!!!!!!!!!!!!!!!!!!! 04/23 10:40
630F:推 amyer:松坂變勝投候選人了 04/23 10:39
631F:推 ltk99:賣肉hr 爽 04/23 10:40
632F:推 poloball:維尼加入勝投候選~! 04/23 10:40
633F:推 tsubasa6405:今天得分都靠全壘打啊!!!! 04/23 10:40
634F:推 pop100:3分砲 04/23 10:40
635F:推 phoenixtwo:勝投來了嗎 04/23 10:40
636F:推 freeru:!!!!!!!!!!!!!!!!!!!!!!!!!!!!!!!!!!!!! 04/23 10:40
637F:→ jshuang:Dice-K, 今天大家一次還給你. 會錢要記得交喔 04/23 10:39
638F:推 HanshinImaok:曾:今天綠色怪物是不是比較低 04/23 10:40
639F:推 TimChiu:爽~~爽~~爽~~爽~~爽~~~ 04/23 10:40
640F:→ hugoweng:MR.DOUBLE HOMER 04/23 10:40
641F:→ tsubasa6405:挑戰綠色怪物的好多XD 04/23 10:40
642F:推 danceking:賣肉讚喔~~~~ 04/23 10:40
643F:推 krajicek:隊長要不要打一支三壘打,另類完全打擊?這四人 04/23 10:40
644F:推 paulrichman:賣肉我愛你!!! 04/23 10:40
645F:推 idioteque:太爽了 04/23 10:40
646F:→ specialcook:日本鄉民:只會打全壘打....真是太棒了XD 04/23 10:40
647F:推 deyugo:放煙火啦!!! Mr. HRRRR!! 04/23 10:40
648F:→ JeAnnWu:只顧打全壘打也爽啊 團隊第19支 04/23 10:40
649F:→ maikxz:果然是胖子然後只會打HR的球隊XD 04/23 10:40
650F:→ Pika123:松坂:水啦~原來失多一點分數才能得到多一點分數 :p 04/23 10:40
651F:推 MER:哇~~~~~~~~ 一定要贏啊~~~~~~~ 哦哦哦~~~~~~ 04/23 10:40
652F:推 jackass:綠色怪物都不怪物了!!!!! 04/23 10:41
653F:→ tkyoung:換一個更大的油桶上來 04/23 10:41
654F:推 iamokk:打爆洋基!!!!!!!!!!!!! 04/23 10:41
655F:→ HanshinImaok:真想看今天2ch會說什麼 哈哈哈 04/23 10:41
656F:推 lodsongyy:XDDDDDD 04/23 10:41
657F:推 A8804064:不要在說襪子不幫忙了.... 04/23 10:41
658F:推 ckhou:爽啊 04/23 10:41
659F:推 yankeehater:又是七分了 XDDDDDDD 04/23 10:41
660F:推 beckli:結果失分比較多的這場現在贏面不小XD 04/23 10:41
661F:推 maxdi:芬威球場怎麼變成台中球場了 04/23 10:41
662F:推 christie972:全壘打大賽喔... 04/23 10:41
663F:→ cornelius:XD 04/23 10:41
664F:→ paulrichman:I love you!!! 賣肉 04/23 10:41
665F:推 Carmelo3:!!!!!!!!!!!!!!!!Mr.Double魂!!!!!!!!!!!!!!!!!!!!!!!!!! 04/23 10:41
666F:→ A8804064:lucky seven 04/23 10:42
667F:推 TimChiu:maxdi你先裸奔再說阿 XD 04/23 10:42
668F:→ Carmelo3:Mr.Double:哎呀....不小心幹太遠了 04/23 10:42
669F:→ paulrichman:松現在是勝投候選嗎? 04/23 10:42
670F:推 kkman0331:芬威的左外野太近了 打得高沒打遠也可能出去 04/23 10:42
671F:推 Jyichien:太快樂了XD 04/23 10:42
672F:推 JackyPayton:XDDDDD 太歡樂了! 04/23 10:42
673F:推 zingaro:!!!!!!!!!!!!!!!!!!!!!!!!!!!!!!!!!帥到!!!!!!!!!!!!!!!!! 04/23 10:43
674F:推 tatani:對啊 那這樣 松應該變勝投? 應該沒錯吧 04/23 10:42
675F:推 Okajima:This homerun can go out in any park!!!!!!!!!!!!!!!!!!! 04/23 10:42
676F:→ maxdi:大白天裸奔會被抓到警察局 04/23 10:43
677F:推 mannypo:綠怪:保安!保安! 可以這樣讓人一直飛過去嗎??? 04/23 10:42
678F:推 mark30204:七分都是全壘打打的打點QQ 04/23 10:43
679F:推 Jethro1215:賣肉太帥啦~~~~ 04/23 10:43
680F:推 jshuang:天天岡跟(打牌)怕被碰都在熱身 04/23 10:43
681F:推 maikxz:等下不知道會不會又是天天岡... 04/23 10:43
682F:推 tunababy:每次看畫面...都全壘打...我還以為是再重撥...真是爽啊.. 04/23 10:42
683F:推 ckhou:maxdi:再出去我含著香蕉跑 04/23 10:43
684F:推 leione:Lowell好棒啊 04/23 10:43
685F:→ COWBOY2:XDDD送!!!!! 04/23 10:44
686F:推 kkman0331:這個球場是投手墳場吧 打到左外野紮實點就很不妙 04/23 10:44
687F:推 nozomi21wt:早知道我今天應該不要去上學 =3= 太精采了 04/23 10:44
688F:推 ruffryders: maxdi:再出去我含著香蕉跑 04/23 10:45
689F:推 specialcook:打到左外野要"很"扎實才會不妙吧XD 04/23 10:45
690F:推 nicetry: maxdi:再出去我含著香蕉跑 04/23 10:45
691F:推 zingaro: maxdi:再出去我含著香蕉跑 04/23 10:45
692F:推 A8804064:綠色怪物擋了不少全壘打...應該對投手比較有利 04/23 10:45
693F:推 christie972:maxdi:再出去我含著香蕉跑 04/23 10:45
694F:推 ltk99:wmp...3K 04/23 10:46
695F:推 paulrichman: maxdi:再出去我含著香蕉跑 04/23 10:46
696F:推 juiceana:哈哈 真是有夠盲的 我寧願讓前兩戰表現很好的coco上場 04/23 10:46
697F:推 Sakurasai:綠色怪物也讓不少飛球成為長打..並不會對投手有利 04/23 10:46
698F:推 tkyoung:對WMP就是一直丟外角就對了.反正他不知道自己手到底多長 04/23 10:46
699F:推 hugoweng:...MO真的很囧 為什麼今天COCO沒上? 04/23 10:46
700F:推 maikxz:...................換Coco上來偷點算了 04/23 10:46
701F:推 dadaHOPE:幹 Wily Mo沒救了 04/23 10:46
702F:推 poloball:維尼:原來有失才有得啊 嗯...(筆記) 04/23 10:46
703F:→ paulrichman:e04!! WMP keep blind all night! 04/23 10:46
704F:推 WilliamChu: maxdi:再出去我含著香蕉跑 04/23 10:46
705F:推 maxdi:這場好像MVP裡的paterson系列在打擊' 04/23 10:46
706F:→ ltk99: maxdi:再出去我含著香蕉跑 04/23 10:47
707F:→ maikxz:小朋友終於安打了Orz 04/23 10:47
708F:推 phoenixtwo:維尼今天還要上嗎? 04/23 10:46
709F:→ paulrichman:帥....小pedro帥 04/23 10:47
710F:推 ruffryders:賣肉長的很像喬治克隆尼~ 04/23 10:47
711F:→ ruffryders: maxdi:再出去我含著香蕉跑 04/23 10:47
712F:→ maikxz:靠 原來是第二支 早上睡過頭沒看到 04/23 10:47
713F:推 lodsongyy:Wily Mo爭氣點 = = Coco都有復活跡象了 04/23 10:47
714F:推 amyer:Coco 下局應該會上來接替中外野守備 04/23 10:48
715F:推 phoenixtwo:poloball:維尼:原來有失才有得啊 04/23 10:49
716F:推 RayAllen1030:lugo walk 04/23 10:50
717F:推 lodsongyy:前面沒看到Wily Mo是不是都外角被K掉? 04/23 10:50
718F:推 idioteque:Lugo walk 04/23 10:51
719F:推 jshuang:隊友: 跟你講會錢要交才會打分數 04/23 10:50
720F:推 paulrichman:Lugo..選球男!! 04/23 10:51
721F:推 maxdi:現在的投手長的真像michael jordan 04/23 10:51
722F:推 specialcook:Lugo今天幾次bb啦 眼睛真好@@ 04/23 10:51
723F:推 A8804064:吉祥物上來了..... 04/23 10:51
724F:推 waterice12:燃燒吧牛棚 04/23 10:52
725F:→ idioteque:前二棒選到5次保送 04/23 10:52
726F:→ JackyPayton:Lugo ....好會選XD 04/23 10:52
727F:推 jshuang:續投喔!!!!! 04/23 10:53
728F:推 hugoweng:我要岡島!! 04/23 10:53
729F:→ jshuang:松伸食指: 再一局啦 04/23 10:53
730F:推 paulrichman:= =..YOUK -.- 04/23 10:53
731F:推 A8804064:前兩棒是眼睛....可口可樂兄弟擺後段棒次果然是對的 04/23 10:53
732F:推 WilliamChu:沒差啦 下局剛好換345棒 04/23 10:54
733F:推 ruffryders: 再一局啦 04/23 10:54
734F:推 Okajima:Sorry, I don't want to be another Proctor... 04/23 10:54
735F:推 phoenixtwo:可口可樂連線又來了嗎 04/23 10:54
736F:→ ruffryders: 再一局啦 04/23 10:54
737F:推 leione:Youk今天悶了 04/23 10:55
738F:推 hugoweng:還真的繼續投耶.... 04/23 10:56
739F:推 A8804064:牛肉.... 04/23 10:56
740F:推 specialcook:DICE-K續投? 04/23 10:56
741F:→ A8804064:鬥志真強!!!! 04/23 10:56
742F:推 jshuang:我剛說續投就是有看到他從休息室出來啊. XD 04/23 10:56
743F:推 ltk99: 松坂:再一局啦,我剛熱身完 04/23 10:55
744F:推 ckhou:真的耶 04/23 10:56
745F:→ jshuang:BS1 有照到 04/23 10:56
746F:推 paulrichman:繼續K吧 04/23 10:56
747F:推 WilliamChu:阿牛一場120球很剛好吧 04/23 10:56
748F:推 doser:維尼之前都投太少在抗議XDDD 04/23 10:56
749F:推 maikxz:中四日還要再投耶= = 04/23 10:57
750F:推 tkyoung:鳥安... 04/23 10:57
751F:推 krajicek:或許投完A-Rod會下去吧,換岡島對付兩位左打 04/23 10:57
752F:推 idioteque:Coco上來守中外野 04/23 10:57
753F:推 A8804064:可以功成身退了.....= = 04/23 10:57
754F:→ jshuang:可惜. A-Rod 鳥碰 04/23 10:58
755F:推 baronterry:松:不好意思熱身熱太久了@@" 04/23 10:57
756F:推 specialcook:換投了 大概本來只打算投AROD吧 04/23 10:57
757F:推 hugoweng:真熱血 04/23 10:58
758F:推 charlietu:小朋友太矮了啦!這場兩個球都接不到.... 04/23 10:58
759F:→ maikxz:天天岡天天岡天天岡天天岡天天岡天天岡 04/23 10:59
760F:推 MER:天天岡上來了 04/23 10:59
761F:推 HanshinImaok:Okajima!!!! 04/23 10:59
762F:推 ckhou:天天岡上來對左打 04/23 10:59
763F:推 paulrichman:帥啊...天天岡 熱血岡...送它們3K吧 04/23 10:59
764F:推 Okajima:OH!!! My term!!!!!!!!!!!!!!!!!!!!!!!!!!!!!!!!!!!!!!!!! 04/23 10:59
765F:推 jshuang:天天岡 04/23 10:59
766F:→ jshuang:天天岡 -> 不要選錯字 04/23 11:00
767F:推 yankeehater:天天岡 Orz 04/23 11:00
768F:推 Kobe24:熱血阿 都直球硬拼!! 04/23 11:00
769F:推 maikxz:Lowell別搞笑... 04/23 11:02
770F:推 jshuang:CoCo 都跑到人家的管區了. Manny 幫幫忙 04/23 11:04
771F:→ jshuang:怕被碰提早上的時機? 04/23 11:05
772F:推 KoAnne:期待DP~~~ 04/23 11:05
773F:推 HanshinImaok:來個DP結束這局 04/23 11:06
774F:→ jshuang:這球接近!!!! 04/23 11:06
775F:→ HanshinImaok:天天岡守住呀...別讓基板的鄉愿們看扁你 04/23 11:07
776F:→ jshuang:天天噹來了. 04/23 11:07
777F:推 tkyoung:岡島太操了 04/23 11:08
778F:推 KoAnne:噹噹噹來了~~~ 04/23 11:08
779F:→ danceking:噹噹噹~~~村民進入城鎮中心拿傢伙啊XD~ 04/23 11:09
780F:推 HanshinImaok:樓上AOC玩多了XD 04/23 11:10
781F:→ HanshinImaok:跑者手有點賤....唉 守住呀 04/23 11:12
782F:推 jshuang:松: 媽的又多算一分 04/23 11:13
783F:推 Polar:那個手... (看制服) 不意外啊(  ̄ c ̄)y▂ξ 04/23 11:13
784F:→ jshuang:NP守住了 04/23 11:14
785F:推 zingaro:有人抓腳啦!!! 04/23 11:14
786F:推 HanshinImaok:pedoria!!!好球呀!!! 04/23 11:14
787F:→ Polar:小Pedroia帥!! 04/23 11:15
788F:推 tsubasa6405:NP!!! 04/23 11:15
789F:推 ljuber:我看第九局紅襪應該是啪啪棒要出來了 04/23 11:15
790F:推 smalldick:抓腳都沒事...唉 04/23 11:15
791F:推 Okajima:Thanks a lot!!!! Pedoria!!! 04/23 11:16
792F:推 HanshinImaok:Pedroia才對 抱歉XD 04/23 11:19
793F:→ mannypo:袁公說維尼龍心大悅 有囧... 04/23 11:19
794F:推 hasebe:西武迷插撥一下XD 04/23 11:44
795F:→ hasebe:大輔在西武時,常常表現好=>打者囧=>敗 04/23 11:45
796F:→ hasebe:打者猛=>自己囧=>敗,所以數據上似乎頗受火力支援,其實... 04/23 11:45
797F:推 barkli:在紅襪就是要爆才有機會贏球啊 04/23 11:46
798F:推 poloball:問一下樓樓上的西武迷 今天維尼算爆了嗎? 04/23 11:53
799F:→ hasebe:以美國或日本角度來看都算爆吧XDD 04/23 11:55
800F:→ hasebe:可見西武法則拿去紅襪不適用(誤) 04/23 11:56
801F:推 jshuang:今天內容還可以. 運氣還是爛. 結果算爆 04/23 12:29
802F:推 phoenixtwo:高於自己的防禦率都算爆吧 04/23 12:36
803F:推 smalldick:至少他應該了解到基襪戰不是那麼好投的,希望下次更小心 04/23 12:38
804F:推 club8:掉的前三分有點運氣差啦 都是用守備就可化解的失分 04/23 12:57
805F:→ club8:不過打線今天也總算還他一場了...前兩場實在太悲情 04/23 12:58
806F:推 u7273:連打四隻HR時,主播就說:What a shock!!! 04/24 01:48